Weather History for GEML - December, 2013

Change the Weather History Date:

Sunday, December 1, 2013

  Actual Average Record
Temperature  
Mean Temperature 54 °F -  
Max Temperature 58 °F 64 °F 75 °F (2001)
Min Temperature 50 °F 53 °F 42 °F (1998)
Degree Days  
Heating Degree Days 11    
Growing Degree Days 4 (Base 50)    
Moisture  
Dew Point 43 °F    
Average Humidity 63    
Maximum Humidity 88    
Minimum Humidity 36    
Precipitation  
Precipitation 0.08 in 0.07 in - ()
Sea Level Pressure  
Sea Level Pressure 29.96 in    
Wind  
Wind Speed 10 mph ()    
Max Wind Speed 17 mph    
Max Gust Speed 26 mph    
Visibility 6.6 miles    
Events Rain    
Averages and records for this station are not official NWS values.
T = Trace of Precipitation, MM = Missing Value Source: Averaged Metar Reports

Daily Weather History Graph

Daily Weather History Graph

Search for Another Location

Airport or City:

Trip Planner

Search our weather history database for the weather conditions in past years. The results will help you decide how hot, cold, wet, or windy it might be!

Date:

Astronomy

Dec. 01, 2013 Rise Set
Actual Time 8:02 AM CET 5:59 PM CET
Civil Twilight 7:34 AM CET 6:27 PM CET
Nautical Twilight 7:02 AM CET 6:58 PM CET
Astronomical Twilight 6:32 AM CET 7:29 PM CET
Moon 6:07 AM CET (12/1) 4:55 PM CET (12/1)
Length of Visible Light 10h 53m
Length of Day
9h 57m
Waning Crescent, 3% of the Moon is Illuminated
Dec 1
Waning Crescent
Dec 3
New
Dec 9
First Quarter
Dec 17
Full
Dec 25
Last Quarter

Hourly Weather History & Observations

Time (CET) Temp. Dew Point Humidity Pressure Visibility Wind Dir Wind Speed Gust Speed Precip Events Conditions
6:00 AM 53.6 °F 37.4 °F 54% 29.83 in - ENE 13.8 mph - N/A   Clear
6:30 AM 53.6 °F 37.4 °F 54% 29.86 in 6.2 mi NE 17.3 mph - N/A   Mostly Cloudy
7:00 AM 54 °F 35 °F 36% 29.88 in 6 mi NE 15.0 mph - - Rain Light Drizzle
7:00 AM 53.6 °F 37.4 °F 54% 29.86 in 6.2 mi NE 13.8 mph - N/A   Mostly Cloudy
7:30 AM 53.6 °F 32.0 °F 44% 29.89 in 6.2 mi Variable 8.1 mph - N/A   Mostly Cloudy
8:00 AM 53.6 °F 37.4 °F 54% 29.92 in 6.2 mi NE 8.1 mph - N/A   Mostly Cloudy
8:30 AM 53.6 °F 39.2 °F 58% 29.92 in 6.2 mi ENE 6.9 mph - N/A   Mostly Cloudy
9:00 AM 55.4 °F 39.2 °F 54% 29.92 in 6.2 mi NE 4.6 mph - N/A   Mostly Cloudy
9:30 AM 55.4 °F 41.0 °F 58% 29.95 in 6.2 mi NE 3.5 mph - N/A   Mostly Cloudy
10:00 AM 55.4 °F 41.0 °F 58% 29.95 in 6.2 mi NNE 12.7 mph - N/A   Mostly Cloudy
10:30 AM 53.6 °F 41.0 °F 62% 29.98 in 6.2 mi North 15.0 mph - N/A   Mostly Cloudy
11:00 AM 51.8 °F 42.8 °F 71% 29.98 in 6.2 mi NNE 12.7 mph - N/A Rain Light Rain
11:30 AM 51.8 °F 42.8 °F 71% 30.01 in 6.2 mi North 9.2 mph - N/A Rain Light Rain
12:00 PM 51.8 °F 44.6 °F 76% 29.98 in 6.2 mi Variable 2.3 mph - N/A   Mostly Cloudy
12:30 PM 51.8 °F 44.6 °F 76% 29.98 in 6.2 mi SW 4.6 mph - N/A   Mostly Cloudy
1:00 PM 52 °F 40 °F 52% 29.99 in 19 mi Calm Calm - -   Partly Cloudy
1:00 PM 53.6 °F 44.6 °F 72% 29.98 in 6.2 mi Variable 3.5 mph 24.2 mph N/A   Overcast
1:30 PM 53.6 °F 44.6 °F 72% 29.98 in 6.2 mi NNW 12.7 mph - N/A   Overcast
2:00 PM 53.6 °F 46.4 °F 77% 29.98 in 6.2 mi North 15.0 mph 26.5 mph N/A Rain Light Rain
2:30 PM 51.8 °F 48.2 °F 88% 29.98 in 6.2 mi North 12.7 mph - N/A Rain Light Rain
3:00 PM 53.6 °F 46.4 °F 77% 29.98 in 6.2 mi North 12.7 mph - N/A Rain Light Rain
3:30 PM 55.4 °F 46.4 °F 72% 29.95 in 6.2 mi North 17.3 mph - N/A   Overcast
4:00 PM 55.4 °F 46.4 °F 72% 29.95 in 6.2 mi North 15.0 mph - N/A   Scattered Clouds
4:30 PM 57.2 °F 46.4 °F 67% 29.95 in 6.2 mi NNE 12.7 mph - N/A   Mostly Cloudy
5:00 PM 57.2 °F 46.4 °F 67% 29.98 in 6.2 mi NNE 12.7 mph - N/A   Mostly Cloudy
5:30 PM 57.2 °F 46.4 °F 67% 29.98 in 6.2 mi North 15.0 mph 26.5 mph N/A   Mostly Cloudy
6:00 PM 57.2 °F 46.4 °F 67% 29.98 in 6.2 mi NNE 12.7 mph - N/A   Mostly Cloudy
6:30 PM 57.2 °F 44.6 °F 63% 29.98 in 6.2 mi NNE 15.0 mph - N/A   Mostly Cloudy
7:00 PM 56 °F 40 °F 44% 30.00 in 6 mi NNE 12.7 mph - -   Partly Cloudy
7:00 PM 57.2 °F 46.4 °F 67% 30.01 in 6.2 mi NNE 12.7 mph 26.5 mph N/A   Scattered Clouds
7:30 PM 57.2 °F 44.6 °F 63% 30.01 in 6.2 mi NE 15.0 mph 26.5 mph N/A   Scattered Clouds
8:00 PM 57.2 °F 44.6 °F 63% 30.01 in 6.2 mi NNE 12.7 mph - N/A   Mostly Cloudy